Naval Air Station Jrb Fort Worth, TX

11:18 AM CDT on September 29, 2016 (GMT -0500)
Fort Worth Naval Air Station Jrb

Weather History for KNFW - August, 2013

Change the Weather History Date:

Thursday, August 8, 2013

  Actual Average Record
Temperature  
Mean Temperature 91 °F -  
Max Temperature 100 °F 94 °F 107 °F (2014)
Min Temperature 82 °F 74 °F 63 °F (1997)
Cooling Degree Days 26    
Growing Degree Days 41 (Base 50)    
Moisture  
Dew Point 65 °F    
Average Humidity 43    
Maximum Humidity 65    
Minimum Humidity 28    
Precipitation  
Precipitation 0.00 in - - ()
Sea Level Pressure  
Sea Level Pressure 29.84 in    
Wind  
Wind Speed 9 mph (South)    
Max Wind Speed 16 mph    
Max Gust Speed -    
Visibility 10 miles    
Events      
Averages and records for this station are not official NWS values.
T = Trace of Precipitation, MM = Missing Value Source: NWS Daily Summary

Daily Weather History Graph

Daily Weather History Graph

Search for Another Location

Airport or City:

Trip Planner

Search our weather history database for the weather conditions in past years. The results will help you decide how hot, cold, wet, or windy it might be!

Date:

Astronomy

Aug. 08, 2013 Rise Set
Actual Time 6:48 AM CDT 8:21 PM CDT
Civil Twilight 6:22 AM CDT 8:47 PM CDT
Nautical Twilight 5:50 AM CDT 9:19 PM CDT
Astronomical Twilight 5:17 AM CDT 9:52 PM CDT
Moon 8:27 AM CDT (8/8) 9:11 PM CDT (8/8)
Length of Visible Light 14h 25m
Length of Day
13h 33m
Waxing Crescent, 3% of the Moon is Illuminated
Aug 8
Waxing Crescent
Aug 14
First Quarter
Aug 20
Full
Aug 28
Last Quarter
Sep 5
New

Hourly Weather History & Observations

Time (CDT) Temp. Heat Index Dew Point Humidity Pressure Visibility Wind Dir Wind Speed Gust Speed Precip Events Conditions
12:52 AM 91.0 °F 90.2 °F 59.0 °F 34% 29.83 in 10.0 mi SSE 8.1 mph - N/A   Clear
1:52 AM 90.0 °F 90.0 °F 61.0 °F 38% 29.84 in 10.0 mi South 16.1 mph - N/A   Partly Cloudy
2:52 AM 88.0 °F 88.7 °F 63.0 °F 43% 29.82 in 10.0 mi South 13.8 mph - N/A   Clear
3:52 AM 86.0 °F 87.6 °F 64.9 °F 49% 29.81 in 10.0 mi South 13.8 mph - N/A   Clear
4:52 AM 86.0 °F 89.4 °F 68.0 °F 55% 29.81 in 10.0 mi South 12.7 mph - N/A   Clear
5:52 AM 84.0 °F 87.8 °F 69.1 °F 61% 29.81 in 10.0 mi South 10.4 mph - N/A   Clear
6:03 AM 84.2 °F 88.4 °F 69.8 °F 62% 29.85 in 10.0 mi South 10.4 mph - N/A   Clear
6:52 AM 82.9 °F 87.0 °F 70.0 °F 65% 29.83 in 10.0 mi South 12.7 mph - N/A   Partly Cloudy
7:52 AM 84.0 °F 88.4 °F 70.0 °F 63% 29.84 in 10.0 mi South 10.4 mph - N/A   Partly Cloudy
8:52 AM 84.9 °F 89.4 °F 70.0 °F 61% 29.88 in 9.0 mi South 5.8 mph - N/A   Mostly Cloudy
9:52 AM 89.1 °F 93.7 °F 69.1 °F 52% 29.89 in 10.0 mi SSW 8.1 mph - N/A   Scattered Clouds
10:52 AM 91.0 °F 95.2 °F 68.0 °F 47% 29.90 in 10.0 mi SSW 8.1 mph - N/A   Scattered Clouds
11:52 AM 93.9 °F 98.6 °F 68.0 °F 43% 29.89 in 10.0 mi SSW 6.9 mph - N/A   Scattered Clouds
12:52 PM 97.0 °F 102.8 °F 69.1 °F 40% 29.87 in 10.0 mi Variable 3.5 mph - N/A   Mostly Cloudy
1:52 PM 95.0 °F 99.0 °F 66.9 °F 40% 29.87 in 10.0 mi SW 15.0 mph - N/A   Mostly Cloudy
2:52 PM 96.1 °F 98.3 °F 64.0 °F 35% 29.85 in 10.0 mi South 8.1 mph - N/A   Mostly Cloudy
3:52 PM 95.0 °F 95.6 °F 62.1 °F 33% 29.83 in 10.0 mi SSW 4.6 mph - N/A   Mostly Cloudy
4:52 PM 98.1 °F 98.6 °F 61.0 °F 29% 29.81 in 10.0 mi North 4.6 mph - N/A   Mostly Cloudy
5:52 PM 99.0 °F 99.5 °F 61.0 °F 28% 29.79 in 10.0 mi NNE 4.6 mph - N/A   Mostly Cloudy
6:52 PM 100.0 °F 101.8 °F 62.1 °F 29% 29.77 in 10.0 mi ESE 3.5 mph - N/A   Scattered Clouds
7:52 PM 97.0 °F 96.9 °F 60.1 °F 29% 29.79 in 10.0 mi South 5.8 mph - N/A   Partly Cloudy
8:52 PM 93.9 °F 93.2 °F 59.0 °F 31% 29.81 in 10.0 mi South 4.6 mph - N/A   Partly Cloudy
9:52 PM 90.0 °F 89.1 °F 59.0 °F 35% 29.83 in 10.0 mi SSW 6.9 mph - N/A   Scattered Clouds
10:52 PM 90.0 °F 89.1 °F 59.0 °F 35% 29.84 in 10.0 mi South 4.6 mph - N/A   Scattered Clouds
11:52 PM 87.1 °F 88.3 °F 64.0 °F 46% 29.83 in 10.0 mi Calm Calm - N/A   Clear